VK2XSE Weather Reports


Display with metric or nautical units.
time (UTC)temp
F
wind
direction
speed
MPH
gust
MPH
rain 1hr
in
rain 24hr
in
rain mn
in
humidity
%
barometer
mb
20260502212518 68 0 1.0 3.0 0.00 0.00 0.00 72 1016.4
20260502211518 69 0 1.0 2.0 0.00 0.00 0.00 66 1016.0
20260502210518 69 338 1.0 3.0 0.00 0.00 0.00 64 1015.6
20260502205518 68 338 1.0 2.0 0.00 0.00 0.00 64 1015.4
20260502204518 68 0.0 2.0 0.00 0.00 0.00 64 1015.4
20260502203518 68 0.0 2.0 0.00 0.00 0.00 65 1015.4
20260502202518 68 0.0 2.0 0.00 0.00 0.00 64 1015.5
20260502201518 68 0.0 2.0 0.00 0.00 0.00 64 1015.2
20260502200518 68 0.0 2.0 0.00 0.00 0.00 64 1015.2
20260502195518 68 0.0 2.0 0.00 0.00 0.00 64 1015.2
20260502194518 68 23 1.0 2.0 0.00 0.00 0.00 64 1015.3
20260502193518 68 45 1.0 3.0 0.00 0.00 0.00 65 1015.2
20260502192518 68 0.0 2.0 0.00 0.00 0.00 65 1015.2
20260502191518 68 0.0 2.0 0.00 0.00 0.00 65 1015.2
20260502190518 68 45 1.0 2.0 0.00 0.00 0.00 65 1015.1
20260502185518 68 68 1.0 3.0 0.00 0.00 0.00 65 1015.0
20260502184518 68 45 1.0 3.0 0.00 0.00 0.00 65 1015.0
20260502183518 68 0.0 2.0 0.00 0.00 0.00 65 1015.1
20260502182518 68 45 1.0 2.0 0.00 0.00 0.00 65 1015.1
20260502181518 68 45 1.0 2.0 0.00 0.00 0.00 65 1015.0
20260502180518 68 45 1.0 4.0 0.00 0.00 0.00 65 1015.1
20260502170518 68 0.0 2.0 0.00 0.00 0.00 69 1015.3
20260502163518 66 45 1.0 3.0 0.00 0.00 0.00 71 1015.2
20260502162518 66 23 1.0 2.0 0.00 0.00 0.00 71 1015.3
20260502161517 66 23 1.0 2.0 0.00 0.00 0.00 71 1015.4
20260502160518 65 68 2.0 3.0 0.00 0.00 0.00 72 1015.4
20260502151517 62 0.0 2.0 0.00 0.00 0.00 74 1016.1
20260502150517 62 0.0 2.0 0.00 0.00 0.00 73 1016.2
20260502130517 65 0.0 2.0 0.00 0.00 0.00 63 1017.3
20260502123517 65 0.0 2.0 0.00 0.00 0.00 61 1017.5
20260502122517 66 0.0 2.0 0.00 0.00 0.00 61 1017.6
20260502121517 66 0.0 2.0 0.00 0.00 0.00 61 1017.7
20260502120517 66 0.0 2.0 0.00 0.00 0.00 60 1017.8
20260502115517 66 0.0 2.0 0.00 0.00 0.00 60 1017.7
20260502114517 67 0.0 2.0 0.00 0.00 0.00 59 1017.8
20260502113517 67 0.0 2.0 0.00 0.00 0.00 59 1017.7
20260502112517 67 0.0 2.0 0.00 0.00 0.00 58 1017.6
20260502111516 67 0.0 2.0 0.00 0.00 0.00 58 1017.6
20260502110516 67 0.0 2.0 0.00 0.00 0.00 58 1017.3
20260502105516 67 0.0 2.0 0.00 0.00 0.00 57 1017.1
20260502104516 68 0.0 2.0 0.00 0.00 0.00 57 1017.2
20260502103516 68 0.0 2.0 0.00 0.00 0.00 56 1017.2
20260502102517 68 0.0 2.0 0.00 0.00 0.00 56 1017.2
20260502101516 68 0.0 2.0 0.00 0.00 0.00 56 1017.1
20260502100516 68 0.0 2.0 0.00 0.00 0.00 55 1017.1
20260502091518 70 0.0 2.0 0.00 0.00 0.00 51 1017.1
20260502090518 71 68 1.0 1.0 0.00 0.00 0.00 51 1017.0
20260502071518 77 0.0 2.0 0.00 0.00 0.00 41 1017.0
20260502070518 77 0.0 2.0 0.00 0.00 0.00 41 1016.9
20260502065518 77 0 1.0 2.0 0.00 0.00 0.00 40 1016.8
20260502064518 78 23 1.0 3.0 0.00 0.00 0.00 39 1016.8
20260502063518 78 45 1.0 3.0 0.00 0.00 0.00 39 1016.7
20260502062518 79 23 1.0 2.0 0.00 0.00 0.00 39 1016.7
20260502061518 78 0 1.0 3.0 0.00 0.00 0.00 39 1016.7
20260502060518 79 0 1.0 3.0 0.00 0.00 0.00 38 1016.8
20260502055518 79 0 1.0 4.0 0.00 0.00 0.00 39 1016.9
20260502054518 79 338 2.0 4.0 0.00 0.00 0.00 38 1017.0
20260502053518 79 23 2.0 6.0 0.00 0.00 0.00 38 1017.0
20260502052518 79 315 2.0 5.0 0.00 0.00 0.00 38 1016.8
20260502051518 79 338 1.0 3.0 0.00 0.00 0.00 40 1017.1
20260502050518 79 0 1.0 3.0 0.00 0.00 0.00 40 1017.3
20260502045518 79 23 1.0 3.0 0.00 0.00 0.00 40 1017.2
20260502044518 80 338 1.0 4.0 0.00 0.00 0.00 40 1017.3
20260502043518 80 23 1.0 3.0 0.00 0.00 0.00 40 1017.3
20260502042517 80 0 1.0 3.0 0.00 0.00 0.00 41 1017.5
20260502041518 80 0.0 2.0 0.00 0.00 0.00 41 1017.4
20260502040517 80 23 1.0 3.0 0.00 0.00 0.00 40 1017.6
20260502035518 80 23 1.0 2.0 0.00 0.00 0.00 40 1017.6
20260502034517 80 23 1.0 3.0 0.00 0.00 0.00 40 1017.8
20260502033517 80 23 1.0 3.0 0.00 0.00 0.00 40 1017.8
20260502032518 80 23 1.0 4.0 0.00 0.00 0.00 40 1018.0
20260502031517 80 23 1.0 5.0 0.00 0.00 0.00 41 1018.2
20260502030517 80 23 1.0 4.0 0.00 0.00 0.00 40 1018.3
20260502025517 80 23 1.0 3.0 0.00 0.00 0.00 41 1018.5
20260502024517 80 0 2.0 8.0 0.00 0.00 0.00 40 1018.8
20260502023517 80 23 2.0 5.0 0.00 0.00 0.00 39 1019.0
20260502022517 80 23 1.0 3.0 0.00 0.00 0.00 40 1019.3
20260502021517 80 23 1.0 3.0 0.00 0.00 0.00 40 1019.5
20260502020517 80 23 1.0 3.0 0.00 0.00 0.00 40 1019.7
20260502015517 79 23 1.0 3.0 0.00 0.00 0.00 41 1019.8
20260502014517 79 23 1.0 4.0 0.00 0.00 0.00 41 1020.0
20260502013517 78 23 2.0 6.0 0.00 0.00 0.00 43 1020.2
20260502012517 77 338 2.0 4.0 0.00 0.00 0.00 44 1020.4
20260502011517 77 23 1.0 4.0 0.00 0.00 0.00 44 1020.5
20260502010517 76 0 1.0 4.0 0.00 0.00 0.00 47 1020.7
20260502005517 74 338 1.0 3.0 0.00 0.00 0.00 49 1020.9
20260502004517 74 23 1.0 3.0 0.00 0.00 0.00 50 1021.1
20260502003517 72 23 1.0 4.0 0.00 0.00 0.00 50 1021.1
20260502002517 72 315 1.0 3.0 0.00 0.00 0.00 51 1021.1
20260502001517 72 23 2.0 5.0 0.00 0.00 0.00 51 1021.2
20260502000517 72 0 2.0 4.0 0.00 0.00 0.00 50 1021.4
20260501235517 73 23 1.0 5.0 0.00 0.00 0.00 51 1021.5
20260501234517 72 0 2.0 5.0 0.00 0.00 0.00 51 1021.5
20260501233517 71 0 1.0 3.0 0.00 0.00 0.00 52 1021.6
20260501232517 70 0 1.0 2.0 0.00 0.00 0.00 55 1021.6
20260501231517 69 0 1.0 3.0 0.00 0.00 0.00 56 1021.7
20260501230517 68 0.0 2.0 0.00 0.00 0.00 57 1021.7
20260501225517 67 0 1.0 3.0 0.00 0.00 0.00 58 1021.8
20260501224517 66 0 1.0 3.0 0.00 0.00 0.00 60 1021.7
20260501223517 66 45 1.0 3.0 0.00 0.00 0.00 60 1021.6
20260501222517 65 68 1.0 3.0 0.00 0.00 0.00 61 1021.5
20260501221517 64 68 1.0 3.0 0.00 0.00 0.00 62 1021.4
20260501220517 64 45 1.0 3.0 0.00 0.00 0.00 62 1021.4
20260501215517 63 68 1.0 3.0 0.00 0.00 0.00 63 1021.3
20260501214517 63 68 1.0 3.0 0.00 0.00 0.00 63 1021.1
20260501213517 62 45 1.0 3.0 0.00 0.00 0.00 63 1021.1